| time (UTC) | temp C | wind direction | speed KPH | gust KPH | rain 1hr cm | rain 24hr cm | rain mn cm | humidity % | barometer mb |
| 20260506114214 | 12 | 326 | 9.7 | 27.4 | 0.00 | 0.00 | 0.00 | 59 | 1012.9 |
| 20260506112314 | 12 | 335 | 12.9 | 27.4 | 0.00 | 0.00 | 0.00 | 59 | 1012.9 |
| 20260506110415 | 12 | 338 | 9.7 | 27.4 | 0.00 | 0.00 | 0.00 | 58 | 1012.9 |
| 20260506104514 | 12 | 328 | 11.3 | 27.4 | 0.00 | 0.00 | 0.00 | 55 | 1012.8 |
| 20260506102614 | 12 | 322 | 11.3 | 27.4 | 0.00 | 0.00 | 0.00 | 58 | 1012.9 |
| 20260506100714 | 12 | 342 | 16.1 | 27.4 | 0.00 | 0.00 | 0.00 | 59 | 1012.9 |
| 20260506094815 | 11 | 326 | 3.2 | 27.4 | 0.00 | 0.00 | 0.00 | 59 | 1012.9 |
| 20260506092914 | 11 | 312 | 1.6 | 27.4 | 0.00 | 0.00 | 0.00 | 63 | 1012.9 |
| 20260506091014 | 11 | 327 | 9.7 | 27.4 | 0.00 | 0.00 | 0.00 | 65 | 1013.0 |
| 20260506085114 | 11 | 340 | 4.8 | 27.4 | 0.00 | 0.00 | 0.00 | 66 | 1012.9 |
| 20260506083216 | 10 | 327 | 1.6 | 27.4 | 0.00 | 0.00 | 0.00 | 69 | 1012.9 |
| 20260506081315 | 10 | 329 | 1.6 | 27.4 | 0.00 | 0.00 | 0.00 | 69 | 1012.9 |
| 20260506073514 | 9 | 320 | 8.0 | 27.4 | 0.00 | 0.00 | 0.00 | 72 | 1012.8 |
| 20260506071615 | 9 | 335 | 8.0 | 20.9 | 0.00 | 0.00 | 0.00 | 72 | 1012.8 |
| 20260506061915 | 8 | 325 | 11.3 | 19.3 | 0.00 | 0.00 | 0.00 | 78 | 1012.5 |
| 20260506050314 | 8 | 295 | 0.0 | 16.1 | 0.00 | 0.00 | 0.00 | 77 | 1012.4 |
| 20260506044416 | 8 | 294 | 0.0 | 16.1 | 0.00 | 0.00 | 0.00 | 76 | 1012.4 |
| 20260506042515 | 8 | 333 | 0.0 | 16.1 | 0.00 | 0.00 | 0.00 | 75 | 1012.3 |
| 20260506040616 | 8 | 324 | 0.0 | 16.1 | 0.00 | 0.00 | 0.00 | 75 | 1012.3 |
| 20260506034716 | 8 | 318 | 0.0 | 16.1 | 0.00 | 0.00 | 0.00 | 74 | 1012.2 |
| 20260506032815 | 8 | 321 | 0.0 | 16.1 | 0.00 | 0.00 | 0.00 | 74 | 1012.3 |
| 20260506030915 | 8 | 353 | 0.0 | 16.1 | 0.00 | 0.00 | 0.00 | 74 | 1012.4 |
| 20260506025015 | 9 | 344 | 0.0 | 16.1 | 0.00 | 0.00 | 0.00 | 75 | 1012.4 |
| 20260506023116 | 9 | 314 | 1.6 | 16.1 | 0.00 | 0.00 | 0.00 | 76 | 1012.5 |
| 20260506021215 | 10 | 343 | 9.7 | 12.9 | 0.00 | 0.00 | 0.00 | 76 | 1012.4 |
| 20260506015315 | 10 | 332 | 0.0 | 11.3 | 0.00 | 0.00 | 0.00 | 76 | 1012.7 |
| 20260506013415 | 10 | 346 | 0.0 | 11.3 | 0.00 | 0.00 | 0.00 | 75 | 1012.7 |
| 20260506011514 | 10 | 338 | 0.0 | 11.3 | 0.00 | 0.00 | 0.00 | 75 | 1012.7 |
| 20260506005614 | 10 | 344 | 0.0 | 11.3 | 0.00 | 0.00 | 0.00 | 75 | 1012.8 |
| 20260506003715 | 10 | 0 | 0.0 | 11.3 | 0.00 | 0.00 | 0.00 | 75 | 1012.9 |
| 20260506001815 | 10 | 356 | 0.0 | 11.3 | 0.00 | 0.00 | 0.00 | 74 | 1012.9 |
| 20260505235913 | 10 | 14 | 0.0 | 11.3 | 0.00 | 0.00 | 0.00 | 74 | 1012.9 |
| 20260505234014 | 10 | 330 | 0.0 | 11.3 | 0.00 | 0.00 | 0.00 | 74 | 1012.9 |
| 20260505232115 | 11 | 319 | 0.0 | 11.3 | 0.00 | 0.00 | 0.00 | 73 | 1012.9 |
| 20260505230215 | 11 | 322 | 1.6 | 4.8 | 0.00 | 0.00 | 0.00 | 73 | 1012.9 |
| 20260505224314 | 11 | 343 | 0.0 | 20.9 | 0.00 | 0.00 | 0.00 | 72 | 1012.9 |
| 20260505222413 | 11 | 342 | 0.0 | 20.9 | 0.00 | 0.00 | 0.00 | 74 | 1012.9 |
| 20260505220515 | 11 | 5 | 4.8 | 20.9 | 0.00 | 0.00 | 0.00 | 74 | 1012.8 |
| 20260505214615 | 12 | 354 | 3.2 | 20.9 | 0.00 | 0.00 | 0.00 | 64 | 1012.6 |
| 20260505212715 | 12 | 351 | 1.6 | 20.9 | 0.00 | 0.00 | 0.00 | 64 | 1012.6 |
| 20260505210814 | 12 | 39 | 3.2 | 20.9 | 0.00 | 0.00 | 0.00 | 64 | 1012.7 |
| 20260505204915 | 12 | 23 | 0.0 | 20.9 | 0.00 | 0.00 | 0.00 | 63 | 1012.7 |
| 20260505203013 | 12 | 30 | 0.0 | 20.9 | 0.00 | 0.00 | 0.00 | 63 | 1012.5 |
| 20260505201114 | 13 | 0 | 0.0 | 20.9 | 0.00 | 0.00 | 0.00 | 61 | 1012.4 |
| 20260505195213 | 13 | 0 | 0.0 | 20.9 | 0.00 | 0.00 | 0.00 | 59 | 1012.1 |
| 20260505193314 | 13 | 42 | 0.0 | 20.9 | 0.00 | 0.00 | 0.00 | 58 | 1011.8 |
| 20260505191413 | 13 | 16 | 0.0 | 20.9 | 0.00 | 0.00 | 0.00 | 57 | 1011.6 |
| 20260505185515 | 13 | 98 | 0.0 | 20.9 | 0.00 | 0.00 | 0.00 | 56 | 1011.4 |
| 20260505183615 | 14 | 100 | 3.2 | 20.9 | 0.00 | 0.00 | 0.00 | 55 | 1011.3 |
| 20260505181714 | 14 | 122 | 0.0 | 20.9 | 0.00 | 0.00 | 0.00 | 55 | 1011.3 |
| 20260505180302 | 14 | 69 | 0.0 | 20.9 | 0.00 | 0.00 | 0.00 | 54 | 1011.3 |
| 20260505174400 | 15 | 94 | 0.0 | 20.9 | 0.00 | 0.00 | 0.00 | 54 | 1011.3 |
| 20260505172502 | 15 | 32 | 0.0 | 20.9 | 0.00 | 0.00 | 0.00 | 53 | 1011.2 |
| 20260505170602 | 15 | 33 | 0.0 | 20.9 | 0.00 | 0.00 | 0.00 | 53 | 1011.3 |
| 20260505164700 | 15 | 72 | 1.6 | 20.9 | 0.00 | 0.00 | 0.00 | 52 | 1011.3 |
| 20260505162801 | 15 | 103 | 1.6 | 20.9 | 0.00 | 0.00 | 0.00 | 53 | 1011.3 |
| 20260505160902 | 15 | 116 | 3.2 | 20.9 | 0.00 | 0.00 | 0.00 | 54 | 1011.3 |
| 20260505153101 | 15 | 137 | 0.0 | 20.9 | 0.00 | 0.00 | 0.00 | 59 | 1011.5 |
| 20260505151201 | 16 | 113 | 1.6 | 20.9 | 0.00 | 0.00 | 0.00 | 53 | 1011.6 |
| 20260505124000 | 16 | 65 | 0.0 | 20.9 | 0.00 | 0.00 | 0.00 | 46 | 1011.9 |
| 20260505122100 | 16 | 351 | 0.0 | 20.9 | 0.00 | 0.00 | 0.00 | 46 | 1011.9 |
| 20260505120202 | 16 | 92 | 1.6 | 20.9 | 0.00 | 0.00 | 0.00 | 46 | 1011.9 |